Погода в Рисовом

Россия / Приморский край     44°13′14″N   133°06′58″E
темп.,
°C
ветер,
м/с
пор.,
м/с
влажн.,
%
обл.,
%
осадки,
мм/ч
давл.,
гПа
погр.,
м
11 мая, вт
вт1101:00+6з2398100 0.1 1014169
04:00+6з1398100 0.2 1015153
07:00+6зсз1298100 0.0 1016158
10:00+7зсз1294100 0.1 1017333
13:00+10с2277100 0.4 1018882
16:00+13вюв126260 0.6 10171173
19:00+11вюв23724 0.0 1017291
22:00+6в11925 0.0 101914
12 мая, ср
ср1201:00+4ююв119425 0.0 101913
04:00+4вюв11962 0.0 101917
07:00+4в1293100 0.0 1019102
10:00+10ю2668100 0.0 1017631
13:00+15ююз51148100 0.0 10151694
16:00+13юз51355100 0.0 10141521
19:00+9ююз41385100 0.8 10151332
22:00+8ююз31187100 1.4 1016825
13 мая, чт
чт1301:00+7ююз39892 0.0 1015280
04:00+6ююв22931 0.0 101557
07:00+6юв129298 0.0 101586
10:00+15ююз376198 0.0 1014804
13:00+19зюз4648100 0.0 10131148
16:00+19зюз354887 0.0 10121040
19:00+16ююз246316 0.0 1011124
22:00+11юз117549 0.0 101311
14 мая, пт
пт1401:00+8вюв11841 0.0 101411
04:00+7вюв11906 0.0 101412
07:00+8в11815 0.0 101445
10:00+17ююв134695 0.0 1013471
13:00+22ююз3632100 0.0 10111715
16:00+21юз4749100 0.0 1009911
19:00+16юз2670100 0.0 1009176
22:00+12ю1294100 1.5 101145
15 мая, сб
сб1501:00+12ююв1297100 1.7 100994
04:00+13ю21293100 1.8 1008639
07:00+14ююз31392100 0.0 1006640
10:00+20ююз611696 0.0 1006846
13:00+24зюз6115722 0.0 10041547
16:00+15сз51092100 1.3 1005697
19:00+11ссз2594100 3.7 1007421
22:00+11ююз1180100 0.0 100934